NSS-6

Last updated on Feb. 20, 2020, 4:40 a.m. UTC

1 27603U 02057A   20050.87899229 -.00000215  00000-0  00000-0 0  9992
2 27603   0.1056 278.0530 0003169  31.3953  69.4754  1.00272727 62887
UTC
Height (km)
Latitude
Longitude
Inclination
Orbital Period
UTC large
Height (km)
Speed (km/s)
/
Latitude / Longitude
Inclination (degrees)
Orbital Period (minutes)
Azimuth
Elevation
Range (km)
Doppler Factor
iOS Compass Heading
iOS Angle

Next 30 passes for location: Hong Kong

Rise time Rise Azimuth (degrees) Set time Set Azimuth (degrees) Duration Max altitude (degrees)

No matching passes for this satellites